{"data":{"norad_id":42987,"intl_designator":"2017-068A","name":"SKYSAT-C11","alt_names":[],"object_type":"PAYLOAD","status":"ACTIVE","operator":null,"country":"US","launch_date":"2017-10-31","launch_site_code":"AFWTR","launch_vehicle":null,"mission":null,"orbit_class":"UNKNOWN","rcs_meters":null,"size_class":null,"mass_kg":null,"dimensions":null,"purposes":["earth_obs"],"wikipedia_slug":null,"has_3d_model":false,"image_url":null,"decayed_at":null,"tle_current":{"epoch":"2026-05-24T22:11:06.030240Z","epoch_age_seconds":78259,"freshness":"FRESH","line1":"1 42987U 17068A   26144.92437535  .00023576  00000+0  33320-3 0  9993","line2":"2 42987  97.4327 292.7703 0001628 106.6518 253.4915 15.56548735479624","mean_motion":15.56548735,"eccentricity":0.0001628,"inclination_deg":97.4327,"raan_deg":292.7703,"arg_perigee_deg":106.6518,"mean_anomaly_deg":253.4915,"bstar":0.0003332,"rev_number":47962,"period_min":92.512361972399,"perigee_km":396.55128225988,"apogee_km":398.75747993357,"semimajor_km":6775.7913810967,"source":"CELESTRAK","updated_at":"2026-05-25T13:38:13.295920Z"}}}